Weather Roundup
Issued by NWS Springfield, MO

Home | Current Version | Previous Version | Text Only | Print | Product List | Glossary On
Versions: 1 2 3 4 5 6 7 8 9 10 11 12 13 14 15 16 17 18 19 20 21 22 23 24 25 26 27 28 29 30 31 32 33 34 35 36 37 38 39 40 41 42 43 44 45 46 47 48 49 50
000
NZUS99 KSGF 291159
HRRSGF

HOURLY WEATHER
NATIONAL WEATHER SERVICE SPRINGFIELD MO
700 AM CDT FRI AUG 29 2014

......SGF CWA......

CITY           SKY/WX    TMP DP  RH WIND       PRES   REMARKS
SPRINGFIELD    PTCLDY    71  63  75 SE10      29.94R
6HR MIN TEMP:  71; 6HR MAX TEMP:  74;

JOPLIN         PTCLDY    74  66  76 S12       29.91S
6HR MIN TEMP:  73; 6HR MAX TEMP:  77;

WEST PLAINS    CLEAR     67  63  87 CALM      30.00R
6HR MIN TEMP:  64; 6HR MAX TEMP:  74;

ROLLA          CLEAR     69  65  86 S6        29.95R
6HR MIN TEMP:  69; 6HR MAX TEMP:  74;

OSAGE BEACH    CLEAR     70  61  73 SE5       29.94R
BRANSON        MOCLDY    70  63  78 SE5       29.97R

......SURROUNDING SGF CWA......

CITY           SKY/WX    TMP DP  RH WIND       PRES   REMARKS
CHANUTE        MOCLDY    71  64  78 CALM      29.87R
PARSONS        MOCLDY    74  66  76 S5        29.89R
COFFEYVILLE    LGT RAIN  73  67  81 S9        29.88R
EMPORIA        CLOUDY    69  64  84 SE5       29.87R
ROGERS AR      MOCLDY    72  64  78 S6        29.96R
SILOAM SPRINGS MOCLDY    72  63  73 SE6       29.95S
HARRISON AR    CLEAR     68  64  87 E6        29.97R
NEAR YELLVILLE CLEAR     66  59  77 CALM      29.96R

......KANSAS AND MISSOURI......

CITY           SKY/WX    TMP DP  RH WIND       PRES   REMARKS
KANSAS CTY INT MOCLDY    69  64  84 S6        29.88R
DOWNTOWN KC    MOCLDY    75  64  68 S3        29.86R
COLUMBIA       CLEAR     71  64  78 S8        29.94R
SEDALIA        CLEAR     69  62  78 S7        29.92R
ST JOSEPH      CLEAR     69  65  86 S3        29.85R
ST LOUIS       MOCLDY    75  70  84 S6        29.97R
SPIRIT OF STL  PTCLDY    69  68  96 CALM      29.95R
KIRKSVILLE     CLEAR     68  66  93 S6        29.92R FOG
WICHITA        LGT RAIN  68  65  90 CALM      29.87S
TOPEKA         PTCLDY    71  67  87 SE5       29.85S
OLATHE         PTCLDY    70  64  81 CALM      29.87R

......TENNESSEE......

CITY           SKY/WX    TMP DP  RH WIND       PRES   REMARKS
MEMPHIS        PTCLDY    74  66  76 S3        29.97R
NASHVILLE      PTCLDY    72  69  90 S3        30.04R

......ARKANSAS.......

CITY           SKY/WX    TMP DP  RH WIND       PRES   REMARKS
FAYETTEVILLE   MOCLDY    73  67  81 S5        29.95R
FT SMITH       PTCLDY    75  70  84 NE3       29.91R
LITTLE ROCK    MOCLDY    73  68  84 CALM      29.96R

......OKLAHOMA.......

CITY           SKY/WX    TMP DP  RH WIND       PRES   REMARKS
TULSA          LGT RAIN  73  67  81 S9        29.88R
PONCA CITY     CLOUDY    70  67  90 CALM      29.88S
MCALESTER      CLOUDY    71  69  93 S3        29.92F
OKLAHOMA CITY  CLOUDY    67  64  90 S7        29.91R

......IOWA............

CITY           SKY/WX    TMP DP  RH WIND       PRES   REMARKS
DES MOINES     MOCLDY    69  66  90 SE8       29.85R
QUAD CITIES    PTCLDY    71  67  87 S8        29.91S

......ILLINOIS........

CITY           SKY/WX    TMP DP  RH WIND       PRES   REMARKS
QUINCY         CLEAR     71  69  93 SE5       29.93R FOG
CHICAGO        CLOUDY    72  64  76 S8        29.98S



USA.gov is the U.S. government's official web portal to all federal, state and local government web resources and services.